Вернуться в каталог

HULIANWANG DIGUI-02

АктивенСвязьPO
NORAD 62324·PAYLOAD·🇨🇳 China

Запущен Dec 16, 2024 с Wenchang Space Launch Site

Loading…

Ближайшие Пролёты (ближайшие 24 часа)

TLE

СвежийSource: Space-Track

Эпоха: Sep 14, 2026, 21:47 UTC

1 62324U 24240B   26257.90811952  .00000018  00000-0  77521-5 0  9992
2 62324  86.5024 313.1693 0001806  90.0057 270.1284 13.24413983 84527

Отслеживайте HULIANWANG DIGUI-02 в реальном времени с AllMySat

Download on the App Store